Location: *
(46.4000°N, 12.6667°E)
Time: 23:41:17
(UTC+00:00)

BREEZE M DEB (TANK) - Pass Details

Date: 09 April 2020
Orbit: 303 x 11878 km, 49.5° (Epoch: 02 June)

Event Time Altitude Azimuth Distance (km) Brightness Sun altitude
Rises 19:16:15 0° 222° (SW) 2,221 5.6 -14.8°
Reaches altitude 10° 19:17:40 10° 215° (SW) 1,579 4.7 -15.0°
Maximum altitude 19:20:41 47° 138° (SE) 926 3.0 -15.4°
Drops below altitude 10° 19:28:33 10° 67° (ENE) 4,091 6.4 -16.6°
Sets 19:34:41 0° 64° (ENE) 6,629 7.5 -17.5°
